Погода в Волчихе

Погода в Волчихе : погода сейчас, прогноз погоды и архив. Всё, что Вы хотите узнать о погоде в Волчихе!

Хотите узнать прогноз погоды в Волчихе? Тогда Вам сюда: Погода в Волчихе

Поиск расширенной информации на нашем сайте:

Полезная информация: Модифицированные штукатурные смеси.

Другие новости

Новости СМИ2

Главная страница сайта

Новости сайта

03.07.2017

Напоминаем, что на нашем специализированном сайте Метеоцентр.Азия вы можете получить высокодетализированные автоматические прогнозы погоды по пунктам России, СНГ и мира в авиационном формате (включающие направление и скорость ветра, видимость, явления погоды, количество и форму облачности, нижнюю и верхнюю границу облачности).

Рекомендуем: Грузоперевозки предложения услуг в подольске грузоперевозки подольск недорого.

Погода в Волчихе - сегодня

Время (UTC), дата Ветер
(°,м/с) 
Видим.   Явления Облачность Т
(°С)
Тd
(°С)
f(%) Тe
(°С)
Pmin
(гПа)
dP
(гПа)
Po
(мм)
O2
(г/м3)
Тmin Tmax R s Состояние
почвы
18 18.01.18 тихо ()   4000 м  слаб. снег  10/0 средняя 
[As op]
-19.9 -22.2 82 -20  1036.9  -0.2  756  330           
21 18.01.18 150 (ЮВ) 4000 м  слаб. снег  10/0 средняя 
[As op]
-16.5 -18.5 84 -17  1036.3  -0.2  756  326           
00 19.01.18 тихо ()   4000 м  слаб. снег  10/0 средняя 
[As op]
-16.5 -18.5 84 -17  1035.8  -0.6  756  326  -22.5    0.4  26  неравномерный
сухой снег
100% 
03 19.01.18 тихо ()   20000 м  {снег}  10/0 средняя 
[As trans]
-15.9 -17.8 85 -16  1036  0.3  756  325           
06 19.01.18 240 (ЮЗ) 10 км  слаб. снег  10/0 средняя 
[As op]
-15.1 -17.2 84 -15  1036.4  0.5  756  324           
09 19.01.18 010 (С) 20000 м  {снег}  10/0 средняя 
[As trans]
-15.3 -17.9 80 -15  1036.8  0.4  757  324           
12 19.01.18 040 (СВ) 20000 м  {снег}  10/0 средняя 
[As op]
-15.2 -17.4 83 -19  1037.8  757  325    -14.1  0.0     
15 19.01.18 050 (СВ) 20000 м    ясно 
-20 -22.2 83 -23  1039  0.6  758  331           
18 19.01.18 040 (СВ) 20000 м    10/0 средняя 
[As op]
-19.3 -21.4 83 -24  1039.1  0.2  758  330           
21 19.01.18 040 (СВ) 20000 м    ясно 
-20.9 -23.3 81 -24  1040.2  0.9  759  333           
00 20.01.18 050 (СВ) 20000 м    ясно 
-25.4 -28.4 76 -29  1041.1  0.4  759  339  -25.4      26  неравномерный
сухой снег
100% 
03 20.01.18 040 (СВ) 10 км    ясно 
-25.4 -28.4 76 -29  1041.5  0.3  759  339  -26.8         
06 20.01.18 030 (СВ) 20000 м    ясно 
-20.2 -22.8 80 -26  1041.5  0.7  760  332           
09 20.01.18 030 (СВ) 20000 м    ясно 
-20.6 -23.5 78 -26  1041.6  760  333           
12 20.01.18 040 (СВ) 20000 м    ясно 
-24.6 -28.3 71 -32  1043.1  760  339    -20.2       
15 20.01.18 050 (СВ) 20000 м    ясно 
-28.3 -32.6 67 -35  1043.9  0.3  761  344           
18 20.01.18 050 (СВ) 20000 м    ясно 
-29.2 -33.5 66 -36  1044.1  0.1  761  345           
21 20.01.18 050 (СВ) 20000 м    ясно 
-31.3 -36.1 62 -40  1044.7  0.3  761  348           
00 21.01.18 050 (СВ) 20000 м    ясно 
-33.6 -38.2 63 -41  1045.6  0.6  761  352  -33.6      26  неравномерный
сухой снег
100% 
03 21.01.18 050 (СВ) 20000 м    ясно 
-35.8 -40.3 63 -45  1046.4  0.5  762  355  -35.8         
06 21.01.18 040 (СВ) 20000 м    ясно 
-33.9 -38.9 61 -44  1046.3  0.2  762  353           
09 21.01.18 040 (СВ) 20000 м    ясно 
-33.3 -38.7 58 -42  1046.6  0.3  762  352           
12 21.01.18 040 (СВ) 20000 м    ясно 
-36.3 -41.5 59 -46  1047.9  0.9  763  357    -33       
15 21.01.18 040 (СВ) 20000 м    ясно 
-37.8 -42.8 59 -47  1048  -0.1  763  359           
18 21.01.18 050 (СВ) 20000 м    ясно 
-38.4 -43.2 61 -47  1048.5  0.4  763  360           
Время (UTC), дата Ветер
(°,м/с) 
Видим.   Явления Облачность Т
(°С)
Тd
(°С)
f(%) Тe
(°С)
Pmin
(гПа)
dP
(гПа)
Po
(мм)
O2
(г/м3)
Тmin Tmax R s Состояние
почвы

Для получения пояснительной информации подведите курсор к названию столбца.

ПОГОДА в Волчихе - архив

Всё, что Вы хотите узнать о погоде в Волчихе - удобно и подробно!

Выберите нужную дату (начиная с 1 января 2015* года) и нажмите кнопку "Найти".
Будут отображены архивные сводки погоды по пункту Волчиха, начиная с указанной даты.


Отображать данные в формате CSV (для использования в таблицах Excel)


Внимание! Наш архив погоды предназначен исключительно для личного некоммерческого использования в познавательных целях. Если Вам необходимы официальные справки о состоянии погоды (для производственных, юридических, коммерческих и т.п. целей), обращайтесь в органы Росгидромета.

*Примечание: данная дата относится к архиву по метеостанциям СССР (Россия, СНГ, Балтия).
Архив по метеостанциям Зарубежной Европы и Азии (кроме Китая) хранится 10 дней, по другим регионам земного шара (Китай, Африка, Америка, Австралия, Океания) - 1 день.

Волчиха - район местоположения метеостанции


Название, широта, долгота, высота метеостанции:
Волчиха 52°ш. 80.4°д. 208 м над ур. моря [Российская Федерация]

Дополнительная информация

В oтличие oт бoльшинства пoгoдных сайтoв мы публикуем пoдрoбную метеoинфoрмацию в детальнoм прoфессиoнальнoм фoрмате.

Характеристики температуры и влажнoсти вoздуха измеряются на высoте 2 м в тени вдали oт зданий и деревьев.
Скoрoсть ветра измеряется на высoте 10 м (на урoвне рoста челoвека скoрoсть ветра ниже в 1.5-2 раза). Если метеoстанция нахoдится в гoрoде или в лесу, тo скoрoсть ветра занижена на 2-4 м/с пo сравнению с oткрытым местoм. Скoрoсть ветра над акватoриями крупных рек и oзёр, а также на вершинах хoлмoв на 2-5 м/с выше, чем в oбычных услoвиях.
Атмoсфернoе давление в разных тoчках местнoсти мoжет значительнo oтличаться oт давления на метеoстанции, в зависимoсти oт услoвий рельефа (при пoдъёме на 10 м давление пoнижается примернo на 1 мм рт.ст.).